Flag for Germany Weather past 2 weeks in Oberhausen, North Rhine-Westphalia, Germany

Now
68 °F

Sunny.


Feels Like: 68 °F
Forecast: 49 / 65 °F
Wind: 2 mph from North

Location: Duesseldorf

Current Time: May 22, 2015 at 4:40:56 PM

Latest Report: May 22, 2015 at 4:20 PM


Visibility: 10 mi

Pressure: 30.21 "Hg

Humidity: 38%

Dew point: 41 °F

Location of OberhausenLocation

Historic Weather in Oberhausen — Graph

°F

Oberhausen temperature yesterday

Maximum temperature yesterday: 63 °F (at 2:20 PM)
Minimum temperature yesterday: 37 °F (at 4:20 AM)
Average temperature yesterday: 53 °F

Past Weeks' High & Low Weather Summary

 TemperatureHumidityPressure
High79 °F (May 11, 4:20 PM)100% (May 16, 3:50 PM)30.36 "Hg (May 16, 3:50 PM)
Low37 °F (May 21, 4:20 AM)32% (May 13, 6:20 PM)29.65 "Hg (May 18, 6:20 PM)
Average57 °F64%30.06 "Hg
* Reported May 7 3:20 PM — May 22 3:20 PM, Oberhausen, Weather by CustomWeather, © 2015

Note: Actual official high and low records may vary slightly from our data, if they occured in-between our weather recording intervals... More about our weather records

Advertising

Oberhausen weather history for previous 24 hours

 ConditionsComfort  
Time TempWeatherWind HumidityBarometerVisibility
3:20 PM
Fri, May 22
68 °FSunny.3 mph38%30.24 "Hg10 mi
2:50 PM68 °FSunny.2 mph40%30.24 "Hg10 mi
2:20 PM66 °FPassing clouds.6 mph40%30.27 "HgN/A
1:50 PM66 °FSunny.1 mph43%30.27 "Hg10 mi
1:20 PM66 °FSunny.6 mph43%30.27 "Hg10 mi
12:50 PM64 °FSunny.3 mph40%30.30 "Hg10 mi
12:20 PM64 °FPartly sunny.6 mph43%30.30 "HgN/A
11:50 AM64 °FPartly sunny.2 mph40%30.30 "HgN/A
11:20 AM63 °FPassing clouds.5 mph49%30.30 "HgN/A
10:50 AM63 °FSunny.3 mph49%30.33 "Hg10 mi
10:20 AM61 °FSunny.2 mph55%30.33 "Hg10 mi
9:50 AM59 °FSunny.3 mph55%30.33 "Hg10 mi
9:20 AM57 °FSunny.2 mph59%30.33 "Hg10 mi
8:50 AM57 °FSunny.3 mph63%30.33 "Hg10 mi
8:20 AM55 °FSunny.2 mph72%30.33 "Hg10 mi
7:50 AM54 °FSunny.3 mph77%30.33 "Hg10 mi
7:20 AM50 °FSunny.3 mph88%30.33 "Hg10 mi
6:50 AM48 °FSunny.1 mph87%30.33 "Hg10 mi
6:20 AM46 °FClear.3 mph93%30.33 "Hg10 mi
5:50 AM46 °FClear.3 mph87%30.30 "Hg10 mi
5:20 AM45 °FClear.5 mph93%30.33 "Hg10 mi
4:50 AM46 °FClear.1 mph87%30.33 "Hg10 mi
4:20 AM46 °FClear.1 mph87%30.33 "Hg10 mi
3:50 AM46 °FClear.2 mph87%30.33 "Hg10 mi
3:20 AM46 °FClear.1 mph87%30.33 "Hg10 mi
2:50 AM48 °FClear.1 mph82%30.33 "Hg10 mi
2:20 AM48 °FClear.1 mph82%30.33 "Hg10 mi
1:50 AM48 °FClear.1 mph82%30.33 "Hg10 mi
1:20 AM50 °FClear.2 mph71%30.33 "Hg10 mi
12:50 AM52 °FClear.1 mph72%30.33 "Hg10 mi
12:20 AM54 °FClear.3 mph67%30.33 "Hg10 mi
11:20 PM
Thu, May 21
57 °FClear.6 mph55%30.33 "Hg10 mi
10:50 PM57 °FClear.6 mph55%30.33 "Hg10 mi
10:20 PM57 °FSunny.8 mph55%30.33 "Hg10 mi
9:50 PM57 °FSunny.5 mph63%30.30 "Hg10 mi
9:20 PM59 °FSunny.2 mph63%30.30 "Hg10 mi
8:50 PM59 °FSunny.2 mph59%30.30 "Hg10 mi
8:20 PM61 °FSunny.3 mph52%30.27 "Hg10 mi
7:50 PM61 °FSunny.6 mph48%30.27 "Hg10 mi
7:20 PM63 °FSunny.2 mph45%30.27 "Hg10 mi
6:50 PM63 °FSunny.2 mph45%30.27 "Hg10 mi
6:20 PM63 °FSunny.5 mph49%30.27 "Hg10 mi
5:50 PM63 °FSunny.3 mph49%30.27 "Hg10 mi
5:20 PM61 °FSunny.5 mph48%30.27 "Hg10 mi
4:50 PM61 °FSunny.6 mph48%30.27 "Hg10 mi
4:20 PM61 °FSunny.6 mph48%30.27 "Hg10 mi
Weather by CustomWeather, © 2015

See weather overviewHow to use our weather pages